Home > Weather > Campo Grande > Past weeks

Flag for Brazil Past Weather in Campo Grande, Mato Grosso Do Sul, Brazil — Yesterday and Last 2 Weeks

Now
61 °F

Sunny.


Feels Like: 61 °F
Forecast: 62 / 85 °F
Wind: 14 mph from Northeast

Location: Campo Grande Aeroporto

Current Time: Jul 23, 2016 at 7:15:21 AM

Latest Report: Jul 23, 2016 at 6:00 AM


Visibility: 10 mi

Pressure: 30.04 "Hg (28.26 "Hg at 516m altitude)

Humidity: 72%

Dew Point: 52 °F

Location of Campo GrandeLocation

Past Weather in Campo Grande — Graph

°F

Campo Grande Temperature Yesterday

Maximum temperature yesterday: 79 °F (at 1:00 PM)
Minimum temperature yesterday: 54 °F (at 1:00 AM)
Average temperature yesterday: 65 °F

High & Low Weather Summary for the Past Weeks

 TemperatureHumidityPressure
High90 °F (Jul 13, 2:00 PM)94% (Jul 16, 7:00 AM)30.24 "Hg (Jul 16, 7:00 AM)
Low45 °F (Jul 17, 6:00 AM)27% (Jul 14, 1:00 PM)29.86 "Hg (Jul 15, 2:00 PM)
Average68 °F56%30.05 "Hg
* Reported Jul 8 6:00 AM — Jul 23 6:00 AM, Campo Grande, Weather by CustomWeather, © 2016

Note: Actual official high and low records may vary slightly from our data, if they occured in-between our weather recording intervals... More about our weather records

Advertising

Campo Grande Weather History for the Previous 24 Hours

Scroll right to see more
 ConditionsComfort  
Time TempWeatherWind HumidityBarometerVisibility
6:00 AM
Sat, Jul 23
61 °FSunny.14 mph72%30.04 "Hg10 mi
5:00 AM63 °FClear.15 mph68%30.04 "Hg10 mi
4:00 AM61 °FClear.12 mph72%30.01 "Hg10 mi
3:00 AM63 °FClear.14 mph73%30.04 "Hg10 mi
2:00 AM61 °FClear.9 mph77%30.04 "Hg10 mi
1:00 AM61 °FClear.8 mph72%30.07 "Hg10 mi
12:00 AM63 °FClear.8 mph73%30.07 "Hg10 mi
11:00 PM
Fri, Jul 22
57 °FClear.5 mph77%30.09 "Hg10 mi
10:00 PM61 °FClear.3 mph72%30.09 "Hg10 mi
9:00 PM63 °FClear.6 mph64%30.07 "Hg10 mi
8:00 PM61 °FClear.5 mph68%30.07 "Hg10 mi
7:00 PM63 °FClear.No wind64%30.04 "Hg10 mi
6:00 PM70 °FClear.3 mph50%30.04 "Hg10 mi
5:00 PM75 °FClear.6 mph41%30.04 "Hg10 mi
4:00 PM79 °FPassing clouds.7 mph37%30.04 "HgN/A
3:00 PM79 °FPassing clouds.7 mph37%30.04 "HgN/A
2:00 PM79 °FSunny.No wind39%30.07 "Hg10 mi
1:00 PM79 °FSunny.6 mph39%30.09 "Hg10 mi
12:00 PM77 °FPassing clouds.5 mph42%30.12 "HgN/A
11:00 AM75 °FSunny.13 mph47%30.15 "Hg10 mi
10:00 AM72 °FSunny.14 mph53%30.15 "Hg10 mi
9:00 AM68 °FSunny.17 mph60%30.15 "Hg10 mi
8:00 AM64 °FSunny.10 mph68%30.15 "Hg10 mi
7:00 AM61 °FSunny.8 mph72%30.12 "Hg10 mi
Weather by CustomWeather, © 2016

See weather overviewHow to use our weather pages